Home   Weather   Düsseldorf   Past weeks

Flag for Germany Past Weather in Düsseldorf, North Rhine-Westphalia, Germany — Yesterday and Last 2 Weeks

Now
61 °F

Passing clouds.


Feels Like: 61 °F
Forecast: 47 / 53 °F
Wind: 21 mph from Southeast

Location: Duesseldorf

Current Time: Apr 30, 2017 at 3:07:21 pm

Latest Report: Apr 30, 2017 at 2:20 pm


Visibility: N/A

Pressure: 29.83 "Hg

Humidity: 36%

Dew Point: 34 °F

Location of DüsseldorfLocation

Past Weather in Düsseldorf — Graph

°F

Düsseldorf Temperature Yesterday

Maximum temperature yesterday: 57 °F (at 4:20 pm)
Minimum temperature yesterday: 34 °F (at 4:50 am)
Average temperature yesterday: 46 °F

High & Low Weather Summary for the Past Weeks

 TemperatureHumidityPressure
High63 °F (Apr 30, 12:50 pm)100% (Apr 26, 5:20 am)30.63 "Hg (Apr 26, 5:20 am)
Low27 °F (Apr 20, 4:50 am)30% (Apr 20, 5:20 pm)29.71 "Hg (Apr 25, 12:50 am)
Average45 °F67%30.14 "Hg
* Reported Apr 15 1:20 pm — Apr 30 1:50 pm, Düsseldorf, Weather by CustomWeather, © 2017

Note: Actual official high and low records may vary slightly from our data, if they occured in-between our weather recording intervals... More about our weather records

Advertising

Düsseldorf Weather History for the Previous 24 Hours

Scroll right to see more
 ConditionsComfort  
Time TempWeatherWind HumidityBarometerVisibility
1:50 pm
Sun, Apr 30
63 °FSunny.17 mph34%29.83 "Hg10 mi
1:20 pm61 °FSunny.21 mph34%29.83 "Hg10 mi
12:50 pm63 °FSunny.17 mph32%29.86 "Hg10 mi
12:20 pm61 °FPassing clouds.17 mph34%29.86 "HgN/A
11:50 am61 °FSunny.21 mph36%29.89 "Hg10 mi
11:20 am61 °FSunny.20 mph36%29.89 "Hg10 mi
10:50 am59 °FPassing clouds.17 mph39%29.89 "HgN/A
10:20 am57 °FSunny.14 mph44%29.92 "Hg10 mi
9:50 am55 °FSunny.15 mph44%29.92 "Hg10 mi
9:20 am54 °FPassing clouds.14 mph47%29.92 "HgN/A
8:50 am52 °FSunny.10 mph47%29.95 "Hg10 mi
8:20 am50 °FSunny.7 mph50%29.95 "Hg10 mi
7:50 am43 °FPassing clouds.3 mph66%29.95 "HgN/A
7:20 am39 °FSunny.2 mph75%29.95 "Hg10 mi
6:50 am34 °FSunny.2 mph87%29.95 "Hg10 mi
6:20 am32 °FSunny.1 mph93%29.98 "Hg10 mi
5:50 am32 °FClear.1 mph93%29.98 "Hg10 mi
5:20 am34 °FClear.2 mph87%29.98 "Hg10 mi
4:50 am34 °FClear.1 mph87%29.98 "Hg10 mi
4:20 am34 °FClear.2 mph87%29.98 "Hg10 mi
3:50 am36 °FClear.1 mph81%29.98 "Hg10 mi
3:20 am37 °FClear.5 mph75%29.98 "Hg10 mi
2:50 am41 °FClear.5 mph66%30.01 "Hg10 mi
2:20 am41 °FClear.7 mph66%30.01 "Hg10 mi
1:50 am41 °FClear.5 mph66%30.01 "Hg10 mi
1:20 am41 °FClear.6 mph66%30.01 "Hg10 mi
12:50 am43 °FClear.8 mph61%30.01 "Hg10 mi
12:20 am41 °FClear.8 mph66%30.01 "Hg10 mi
11:50 pm
Sat, Apr 29
45 °FClear.8 mph57%30.01 "Hg10 mi
11:20 pm43 °FClear.10 mph61%30.01 "Hg10 mi
10:50 pm43 °FClear.9 mph66%30.01 "Hg10 mi
9:50 pm45 °FClear.8 mph61%30.04 "Hg10 mi
9:20 pm48 °FPassing clouds.7 mph50%30.04 "HgN/A
8:50 pm50 °FSunny.5 mph47%30.04 "Hg10 mi
8:20 pm50 °FSunny.7 mph50%30.04 "Hg10 mi
7:50 pm54 °FSunny.7 mph41%30.04 "Hg10 mi
7:20 pm54 °FPassing clouds.7 mph41%30.04 "HgN/A
6:50 pm55 °FPassing clouds.8 mph41%30.04 "HgN/A
6:20 pm57 °FSunny.3 mph36%30.04 "Hg10 mi
5:50 pm57 °FSunny.5 mph39%30.04 "Hg10 mi
5:20 pm57 °FSunny.3 mph36%30.04 "Hg10 mi
4:50 pm55 °FPassing clouds.6 mph38%30.04 "HgN/A
4:20 pm57 °FPassing clouds.6 mph39%30.07 "HgN/A
3:50 pm55 °FPassing clouds.5 mph38%30.07 "HgN/A
3:20 pm55 °FSunny.6 mph44%30.07 "Hg10 mi
Weather by CustomWeather, © 2017

See weather overviewHow to use our weather pages